{"data":{"norad_id":67125,"intl_designator":"2025-299Z","name":"STARLINK-36219","alt_names":[],"object_type":"PAYLOAD","status":"ACTIVE","operator":null,"country":"US","launch_date":"2025-12-15","launch_site_code":"AFETR","launch_vehicle":null,"mission":null,"orbit_class":"UNKNOWN","rcs_meters":null,"size_class":null,"mass_kg":null,"dimensions":null,"purposes":["comms"],"wikipedia_slug":null,"has_3d_model":false,"image_url":null,"decayed_at":null,"tle_current":{"epoch":"2026-09-20T09:25:30.586368Z","epoch_age_seconds":87831,"freshness":"FRESH","line1":"1 67125U 25299Z   26263.39271512  .00003882  00000+0  15051-3 0  9992","line2":"2 67125  43.0011 149.3988 0000600  33.4336 326.6554 15.27580414 42893","mean_motion":15.27580414,"eccentricity":6.0e-5,"inclination_deg":43.0011,"raan_deg":149.3988,"arg_perigee_deg":33.4336,"mean_anomaly_deg":326.6554,"bstar":0.00015051,"rev_number":4289,"period_min":94.266723165776,"perigee_km":482.63618528362,"apogee_km":483.45952746638,"semimajor_km":6861.184856375,"source":"CELESTRAK","updated_at":"2026-09-21T09:00:36.108580Z"}}}